Location: Unspecified
(42.3650°N, 71.1030°W)
Time: 16:28:56
(UTC+00:00)

Transit 2A - Pass Details

Date: 03 July 2024
Orbit: 591 x 960 km, 66.7° (Epoch: 16 July)

Event Time Altitude Azimuth Distance (km) Brightness Sun altitude
Rises 00:53:14 0° 335° (NNW) 3,545 10.7 -5.1°
Reaches altitude 10° 00:56:02 10° 346° (NNW) 2,640 9.7 -5.5°
Maximum altitude 01:01:30 31° 47° (NE) 1,612 7.6 -6.3°
Drops below altitude 10° 01:07:03 10° 108° (ESE) 2,689 8.2 -7.1°
Enters shadow 01:07:55 - 112° (ESE) 2,962 8.4 -7.2°
